Hourly Data Report for October 02, 2013

All times are specified in Local Standard Time (LST). Add 1 hour to adjust for Daylight Saving Time where and when it is observed.

OTTAWA INTL A
ONTARIO

45°19'00.000" N
75°40'00.000" W
114.90 m
6106001
71628
YOW

Download Data

Hourly Data (October 2013)
Hourly Data Report for October 2, 2013
Temp Definition
°C
Dew Point Temp Definition
°C
Rel Hum Definition
%
Wind Dir Definition
10's deg

Wind Spd Definition
km/h
Visibility Definition
km
Stn Press Definition
kPa
Hmdx Definition


Wind Chill Definition


Weather Definition


TIME
00:00 Legend Double Dagger 14.4 13.5 94 18 9 24.1 99.64     LegendNANA
01:00 Legend Double Dagger 15.1 14.2 94 19 12 12.9 99.65     Mostly Cloudy
02:00 Legend Double Dagger 14.6 14.0 96 20 9 11.3 99.63     LegendNANA
03:00 Legend Double Dagger 15.0 14.4 96 22 15 11.3 99.60     LegendNANA
04:00 Legend Double Dagger 15.1 14.5 96 22 15 9.7 99.62     Fog
05:00 Legend Double Dagger 14.9 14.3 96 22 12 9.7 99.66     Fog
06:00 Legend Double Dagger 14.9 14.1 95 22 11 8.1 99.69     Fog
07:00 Legend Double Dagger 15.6 14.7 94 24 9 9.7 99.75     Fog
08:00 Legend Double Dagger 17.5 15.7 89 23 18 16.1 99.78     LegendNANA
09:00 Legend Double Dagger 19.4 16.1 81 26 20 24.1 99.84     LegendNANA
10:00 Legend Double Dagger 21.9 13.9 60 28 24 24.1 99.82 25   Clear
11:00 Legend Double Dagger 23.4 11.3 46 26 22 24.1 99.80 25   LegendNANA
12:00 Legend Double Dagger 24.0 7.4 34 29 31 24.1 99.79     LegendNANA
13:00 Legend Double Dagger 24.7 7.1 32 26 27 24.1 99.76 25   Clear
14:00 Legend Double Dagger 24.7 6.7 31 29 25 24.1 99.76 25   LegendNANA
15:00 Legend Double Dagger 24.6 5.6 29 27 34 24.1 99.74     LegendNANA
16:00 Legend Double Dagger 24.2 3.2 25 29 24 24.1 99.76     Clear
17:00 Legend Double Dagger 22.5 4.3 30 28 14 24.1 99.82     LegendNANA
18:00 Legend Double Dagger 19.0 5.2 40 24 10 24.1 99.87     LegendNANA
19:00 Legend Double Dagger 16.5 4.9 46 27 15 24.1 99.96     Clear
20:00 Legend Double Dagger 15.0 5.3 52 26 14 24.1 100.05     LegendNANA
21:00 Legend Double Dagger 14.6 5.5 54 26 15 24.1 100.12     LegendNANA
22:00 Legend Double Dagger 15.1 5.4 52 27 18 24.1 100.17     Clear
23:00 Legend Double Dagger 13.6 5.8 59 29 11 24.1 100.23     LegendNANA

Notes on Data Quality.

Legend

  • E = Estimated
  • M = Missing
  • NA = Not Available
  • ‡ = Partner data that is not subject to review by the National Climate Archives
Date modified: